Location: Peach Mountain Observatory
(42.3967°N, 83.9367°W)
Time: 08:16:11
(UTC-05:00)

deb Explorer IX - Pass Details

Date: 27 January 2020
Orbit: 549 x 1099 km, 38.8° (Epoch: 24 February)

Event Time Altitude Azimuth Distance (km) Brightness Sun altitude
Rises 20:25:03 0° 218° (SW) 3,530 ? -29.9°
Reaches altitude 10° 20:27:49 10° 208° (SSW) 2,673 ? -30.5°
Enters shadow 20:31:04 25° 183° (S) 1,907 ? -31.1°
